Showing default

GAOFEN 6, 43484

Orbit data source: Space-Track

GAOFEN 6, 43484 is a payload satellite owned by GGKGJ (CN) in SSO that was launched on Sat, 02 Jun 2018 UTC via a CHANG ZHENG 2D launch vehicle from the Jiuquan Satellite Launch Center, China (JSC). Payload-class satellites include a variety of spacecraft equipped with specific instruments for various scientific and technological missions. These include communications satellites like Starlink; space stations such as the ISS; scientific satellites like the Hubble; Earth observation satellites from companies like Planet Labs, Umbra, and HawkEye 360; GPS; miniature CubeSats for education and research; and military/defense satellites.

Loading next visibility...
Identifier
43484, 2018-048A
Orbit
SSO
Country
Flag of CNCN / PRC
Related business
Manufacturer
DFH
Mission
Operational Civil Imaging
Bus & Motor
CAST-2000, AOCS
Mass
1,064 kg wet, ~900 kg dry
Launch date (UTC)
2018-06-02 (7 years ago)
Launch vehicle
CHANG ZHENG 2D
Launch site
Jiuquan Satellite Launch Center, China (JSC)
Object type
Payload
Rocket body
Debris
Shape & HBR
Box + 2 Pan, 2.0 m
Radar Cross Section
4.991 m², Large (>1 m²)

Expand to show TLE details & history
Last TLE update: 5 hours ago

TLE from 5 hours ago
0 GAOFEN 6
1 43484U 18048A   25297.85948743  .00001278  00000-0  19019-3 0  9998
2 43484  97.8090   3.7496 0010894 210.8996 149.1574 14.76541849398666
Epoch: 2025-10-24T20:37Z
TLE epoch observation values (Epoch: 2025-10-24T20:37:39.713Z)
Latitude
-0.00009°
Longitude
20.8358°
Altitude
649.849 km
Speed
7.529 km/s
True Right ascension
00h 14m 59s
True Declination
0° 00' 00"
Sunlit
Object was in full shadow at epoch
Visualization orbit readout
Latitude
Unknown
Longitude
Unknown
Altitude
Unknown
Speed
Unknown
Apparent Right ascension
Unknown
Apparent Declination
Unknown
Sunlit
N/A
Visualization observer readout
Local Sidereal Time
21:13:37
Azimuth
Unknown
Elevation
Unknown
Doppler factor
Unknown
Orbital elements
Apogee altitude
644.945 km
Perigee altitude
629.66 km
Semi-major axis
7,015.44 km
Eccentricity
0.00109
Inclination
97.809°
RAAN
3.7496°
Arg. of periapsis
210.8996°
True anomaly
149.22133°
Mean anomaly
149.1574°
Eccentric anomaly
149.18937°
Mean motion
3.69369 °/min
Orbital period
97.46 mins
BSTAR
0.00019019
Loading maneuver chart data...
Computing Atmospheric mass density...
Loading historical data...
Loading historical data...
Loading historical data...
Loading historical data...
Loading historical data...
Loading historical data...
Loading historical data...
Other satellites on launch #48 in the year 2018 (2018-06-02 UTC)

Documentation

Showing up to 5 results
|